Kuchera_Ratio
0.0 0.0 0.0 0.0 0.0 0.0 0.0 0.0 0.0 0.0 0.0 0.0 0.0 0.0 0.0 0.0 0.0 0.0 0.0 0.0 0.0 0.0 0.0 0.0 0.0 0.0 0.0 0.0 0.0 0.0 0.0 0.0 0.0 0.0 0.0 0.0 0.0 0.0 0.0 0.0 0.0 0.0 0.0
0.0 0.0 0.0 0.0 0.0 0.0 0.0 0.0 0.0 0.0 0.0 0.0 0.0 0.0 0.0 0.0 0.0 0.0 0.0 0.0 0.0 0.0 0.0 0.0 0.0 0.0 0.0 0.0 0.0 0.0 0.0 0.0 0.0 0.0 0.0 0.0 0.0 0.0 0.0 0.0 0.0 0.0 0.0
0.0 0.0 0.0 0.0 0.0 0.0 0.0 0.0 0.0 0.0 0.0 0.0 0.0 0.0 0.0 0.0 0.0 0.0 0.0 0.0 0.0 0.0 0.0 0.0 0.0 0.0 0.0 0.0 0.0 0.0 0.0 0.0 0.0 0.0 0.0 0.0 0.0 0.0 0.0 0.0 0.0 0.0 0.0
0.0 0.0 0.0 0.0 0.0 0.0 0.0 0.0 0.0 0.0 0.0 0.0 0.0 0.0 0.0 0.0 0.0 0.0 0.0 0.0 0.0 0.0 0.0 0.0 0.0 0.0 0.0 0.0 0.0 0.0 0.0 0.0 0.0 0.0 0.0 0.0 0.0 0.0 0.0 0.0 0.0 0.0 0.0
0.0 0.0 0.0 0.0 0.0 0.0 0.0 0.0 0.0 0.0 0.0 0.0 0.0 0.0 0.0 0.0 0.0 0.0 0.0 0.0 0.0 0.0 0.0 0.0 0.0 0.0 0.0 0.0 0.0 0.0 0.0 0.0 0.9 2.3 1.5 0.0 0.0 0.0 0.1 0.0 0.0 0.0 0.0
0.0 0.0 0.0 0.0 0.0 0.0 0.0 0.0 0.0 0.0 0.0 0.0 0.0 0.0 0.0 0.0 0.0 0.0 0.0 0.0 0.0 0.0 0.0 0.0 0.0 0.0 0.0 0.0 0.0 1.1 1.7 2.1 3.3 4.5 5.1 6.1 4.1 2.5 0.5 0.9 1.1 3.1 5.3
0.0 0.0 0.0 0.0 0.0 0.0 0.0 0.0 0.0 0.0 0.0 0.0 0.0 0.0 0.0 0.0 0.0 0.0 0.3 0.0 0.0 0.0 0.0 0.0 0.0 0.0 0.0 0.0 0.0 1.1 1.1 2.3 5.1 3.7 6.3 5.1 5.3 3.5 2.3 3.7 3.3 3.7 3.7
0.0 0.0 0.0 0.0 0.0 0.0 0.0 0.0 0.0 0.0 0.0 0.0 0.0 0.0 0.0 0.0 0.0 0.0 0.7 0.0 0.0 0.0 0.0 0.0 0.0 0.0 0.0 0.0 0.7 2.1 2.7 1.7 1.1 0.9 2.5 2.9 2.1 1.1 2.3 3.1 4.9 4.7 4.3
0.0 0.0 0.0 0.0 0.0 0.0 0.0 0.0 0.0 0.0 0.0 0.0 0.0 0.0 0.0 0.0 0.0 0.7 0.0 0.0 0.0 0.0 0.0 0.0 0.0 0.0 0.0 0.7 3.3 6.1 6.5 5.1 0.9 0.7 1.1 1.7 1.9 2.1 2.3 4.1 7.1 7.7 7.3
0.0 0.0 0.0 0.0 0.0 0.0 0.0 0.0 0.0 0.0 0.0 0.0 0.0 0.0 0.0 0.0 1.1 0.9 0.0 0.0 0.0 0.0 0.0 0.0 0.3 0.9 3.1 3.5 4.1 6.3 8.1 6.3 5.7 5.9 5.7 4.1 3.3 3.5 4.0 2.9 4.9 7.7 7.3
0.0 0.0 0.0 0.0 0.0 0.0 0.0 0.0 0.0 0.0 0.0 0.0 0.0 0.0 0.0 0.0 0.0 0.1 0.9 0.0 0.0 0.9 0.7 0.9 0.0 1.7 2.9 2.9 3.7 4.3 5.3 4.9 6.3 6.5 5.7 4.9 4.9 3.9 3.5 2.9 3.5 5.9 7.7
0.0 0.0 0.0 0.0 0.0 0.0 0.0 0.0 0.0 0.0 0.0 0.0 0.0 0.0 0.0 0.0 0.0 0.0 0.5 2.3 1.7 1.3 2.3 0.9 0.0 2.5 3.5 3.5 3.3 3.5 5.1 6.1 4.3 4.7 5.3 5.5 5.7 5.7 4.7 5.1 6.5 6.7 6.2
0.0 0.0 0.0 0.0 0.0 0.0 0.0 0.0 0.0 0.0 0.0 0.0 0.0 0.0 0.0 0.0 0.0 0.0 1.3 2.7 2.9 2.1 1.1 2.9 4.5 3.9 3.1 2.5 2.3 4.3 6.3 4.1 5.1 5.9 6.3 6.3 5.5 4.1 5.3 6.1 6.3 5.9 5.7
0.0 0.0 0.0 0.0 0.0 0.0 0.0 0.0 0.0 0.0 0.0 0.0 0.0 0.0 0.0 0.0 0.0 0.0 0.0 0.0 1.3 2.7 4.9 4.7 4.1 6.1 4.8 3.5 2.5 1.5 1.9 2.5 4.3 5.5 6.5 5.5 2.1 2.9 5.3 5.5 6.3 6.1 6.3
0.0 0.0 0.0 1.4 0.0 0.0 0.0 0.0 0.0 0.0 0.0 0.0 0.0 0.0 2.1 4.5 0.7 2.9 4.3 3.5 3.3 5.1 6.9 4.9 4.1 2.5 2.1 1.9 2.3 2.3 2.3 2.7 4.5 4.1 5.7 5.9 4.1 3.9 4.3 4.9 5.5 5.9 7.1
0.0 0.5 0.7 2.1 3.5 0.7 0.0 2.7 4.5 4.1 3.9 4.3 5.1 3.9 5.3 5.7 6.1 5.1 5.1 5.5 5.5 5.1 5.7 6.3 6.7 6.5 6.1 4.5 5.9 5.7 4.3 4.3 4.1 4.5 6.1 5.1 5.7 5.5 5.7 5.1 5.9 6.3 7.5
0.0 0.0 0.9 1.9 2.3 3.7 2.9 1.9 5.5 6.3 5.5 5.7 5.7 5.1 5.7 6.3 5.9 5.5 5.9 5.9 6.1 5.7 5.5 5.9 7.3 7.5 7.1 5.7 5.3 5.3 6.1 3.5 2.7 3.9 5.3 5.5 5.9 5.5 6.1 6.1 6.1 6.5 7.5
0.0 0.9 0.0 0.5 1.7 3.1 3.3 2.7 2.3 2.7 5.5 5.9 7.3 5.7 6.3 6.3 5.9 6.1 6.1 6.1 3.3 2.7 2.9 6.3 7.3 6.7 6.9 6.5 5.7 6.3 5.5 4.5 4.3 4.3 5.5 5.9 6.7 6.9 6.7 6.7 6.7 7.5 7.5
0.0 0.0 0.3 0.9 1.3 2.9 3.3 2.9 2.9 3.3 3.9 3.1 2.1 6.5 5.7 5.7 6.1 5.9 5.9 5.3 5.3 4.9 3.9 5.1 6.5 6.1 6.5 6.9 6.7 6.9 7.3 6.7 5.9 7.1 6.3 6.9 7.3 7.1 7.5 7.3 7.3 8.1 8.1
0.7 3.7 0.5 0.0 1.1 1.5 1.1 2.5 3.5 3.7 3.9 3.7 3.5 2.9 1.3 2.7 6.1 7.7 7.3 7.9 7.9 5.9 5.9 6.1 6.3 6.3 6.1 6.9 7.1 7.3 7.3 6.7 6.1 5.7 6.7 7.7 7.7 6.9 8.1 7.9 7.7 7.9 8.9
0.0 0.0 0.7 0.0 0.0 0.0 0.1 1.5 0.9 1.5 2.9 2.7 3.3 4.5 5.1 3.9 5.9 6.1 5.7 6.1 5.7 5.7 6.5 5.9 6.1 6.9 6.1 6.3 6.3 6.3 6.5 7.5 6.3 5.7 5.9 6.3 7.7 7.7 7.1 7.3 7.7 8.3 8.3
0.0 0.0 0.0 0.0 0.0 0.0 0.0 0.0 0.0 0.0 0.0 1.1 1.1 1.1 6.7 6.5 6.1 5.9 5.9 5.9 6.9 5.5 4.5 4.7 5.5 5.1 6.1 6.1 6.7 7.7 7.5 7.5 6.9 6.1 6.5 6.7 7.1 7.5 7.3 7.7 8.1 8.1 8.1
0.0 0.0 0.0 0.0 0.0 0.3 0.0 0.0 0.0 0.0 0.5 1.3 1.3 3.1 4.1 7.1 7.1 6.5 6.3 6.3 5.5 5.9 5.1 5.7 7.3 6.5 5.1 6.1 6.1 6.3 7.3 6.7 6.1 5.9 6.9 7.1 7.5 7.9 8.1 8.1 8.5 8.7 7.9
0.0 0.0 0.0 0.0 0.0 0.0 0.9 3.3 4.1 4.9 4.7 5.5 6.3 6.5 6.5 6.5 7.3 7.3 7.3 7.3 6.7 7.1 7.3 7.5 6.9 7.3 7.1 7.3 6.5 6.5 5.1 5.5 5.5 6.1 6.5 7.1 7.3 8.1 8.1 8.5 8.3 8.7 7.9
0.0 0.1 3.3 3.5 5.3 6.3 6.9 6.7 6.9 7.3 7.5 7.5 7.5 7.3 6.1 6.5 6.5 7.5 7.5 7.1 7.3 7.9 7.3 7.3 7.1 7.5 8.1 8.5 8.7 7.9 7.1 7.3 7.1 6.7 6.7 7.3 7.5 8.5 8.3 8.7 8.9 9.5 7.9
2.7 4.3 4.7 5.3 7.1 7.3 7.9 8.5 8.5 8.5 8.7 8.3 8.1 7.7 7.5 7.1 6.5 7.5 7.5 7.9 8.3 7.7 7.7 7.1 7.3 8.1 8.5 8.1 7.3 8.3 8.9 7.7 7.7 8.1 7.3 6.9 7.9 8.3 8.7 9.1 9.9 10.1 8.5